Location: *
(45.9500°N, 9.0833°E)
Time: 19:22:53
(UTC+00:00)

Cosmos 2360 Rocket - Pass Details

Date: 03 March 2021
Orbit: 833 x 846 km, 71.0° (Epoch: 20 April)

Event Time Altitude Azimuth Distance (km) Brightness Sun altitude
Rises 18:36:36 0° 202° (SSW) 3,374 5.5 -15.3°
Reaches altitude 10° 18:39:01 10° 201° (SSW) 2,446 4.8 -15.7°
Maximum altitude 18:44:39 83° 115° (ESE) 852 2.1 -16.7°
Drops below altitude 10° 18:50:20 10° 28° (NNE) 2,471 4.4 -17.6°
Sets 18:52:47 0° 27° (NNE) 3,412 5.2 -18.1°
